Time,TemperatureC,DewpointC,PressurehPa,WindDirection,WindDirectionDegrees,WindSpeedKMH,WindSpeedGustKMH,Humidity,HourlyPrecipMM,Conditions,Clouds,dailyrainMM,SolarRadiationWatts/m^2,UVIndex,SoftwareType,DateUTC
2026-09-06 00:04:58,9.5,4.9,1003.4,WNW,300,0,0,73,0.0,,,0.0,0,0,n/a,2026-09-05T12:04:58Z
2026-09-06 00:09:55,9.5,5.1,1003.2,WNW,300,0,1.6,73.9,0.0,,,0.0,0,0,n/a,2026-09-05T12:09:55Z
2026-09-06 00:14:59,9.5,5.2,1003.2,WNW,300,0,1.9,74.4,0.0,,,0.0,0,0,n/a,2026-09-05T12:14:59Z
2026-09-06 00:19:57,9.6,5.5,1003.2,WNW,300,0.4,1.9,75.7,0.0,,,0.0,0,0,n/a,2026-09-05T12:19:57Z
2026-09-06 00:24:58,9.6,5.6,1003.2,WNW,300,0.2,1.9,76,0.0,,,0.0,0,0,n/a,2026-09-05T12:24:58Z
2026-09-06 00:29:59,9.5,5.5,1003.4,WNW,300,1.8,3.7,76,0.0,,,0.0,0,0,n/a,2026-09-05T12:29:59Z
2026-09-06 00:34:59,9.5,5.4,1003.5,WNW,300,0.8,3.7,75.7,0.0,,,0.0,0,0,n/a,2026-09-05T12:34:59Z
2026-09-06 00:39:55,9.5,5.5,1003.4,WNW,300,1.6,3.7,76,0.0,,,0.0,0,0,n/a,2026-09-05T12:39:55Z
2026-09-06 00:44:55,9.4,5.4,1003.5,WNW,300,2.2,3.7,75.7,0.0,,,0.0,0,0,n/a,2026-09-05T12:44:55Z
2026-09-06 00:49:55,9.4,5.3,1003.6,WNW,300,1,3.7,75.4,0.0,,,0.0,0,0,n/a,2026-09-05T12:49:55Z
2026-09-06 00:54:55,9.4,5.4,1003.6,WNW,300,2.1,3.7,75.8,0.0,,,0.0,0,0,n/a,2026-09-05T12:54:55Z
2026-09-06 00:59:55,9.4,5.4,1003.7,WNW,300,0.9,3.7,76,0.0,,,0.0,0,0,n/a,2026-09-05T12:59:55Z
2026-09-06 01:04:55,9.4,5.4,1003.6,WNW,300,1.2,6.4,76,0.0,,,0.0,0,0,n/a,2026-09-05T13:04:55Z
2026-09-06 01:09:57,9.5,5.3,1003.7,WNW,300,1.6,5.6,75.4,0.0,,,0.0,0,0,n/a,2026-09-05T13:09:57Z
2026-09-06 01:14:57,9.6,5.6,1003.8,WNW,300,1,5.6,75.8,0.0,,,0.0,0,0,n/a,2026-09-05T13:14:57Z
2026-09-06 01:19:55,9.8,5.6,1003.8,WNW,300,0.8,5.6,75.2,0.0,,,0.0,0,0,n/a,2026-09-05T13:19:55Z
2026-09-06 01:24:55,9.9,5.7,1003.8,WNW,300,0.9,3.7,75,0.0,,,0.0,0,0,n/a,2026-09-05T13:24:55Z
2026-09-06 01:29:55,9.9,5.6,1003.8,WNW,300,0.2,1.9,74.4,0.0,,,0.0,0,0,n/a,2026-09-05T13:29:55Z
2026-09-06 01:34:54,10,5.5,1003.9,WNW,300,1.1,3.7,74,0.0,,,0.0,0,0,n/a,2026-09-05T13:34:54Z
2026-09-06 01:39:56,10.1,5.7,1004.0,WNW,300,1.5,3.7,74.5,0.0,,,0.0,0,0,n/a,2026-09-05T13:39:56Z
2026-09-06 01:44:56,10.1,5.7,1004.0,WNW,300,1.3,3.7,74.5,0.0,,,0.0,0,0,n/a,2026-09-05T13:44:56Z
2026-09-06 01:49:57,10.1,5.8,1004.0,WNW,300,1.5,5.6,74.7,0.0,,,0.0,0,0,n/a,2026-09-05T13:49:57Z
2026-09-06 01:54:54,10.1,5.7,1004.0,WNW,300,2.5,5.6,74.2,0.0,,,0.0,0,0,n/a,2026-09-05T13:54:54Z
2026-09-06 01:59:54,10.2,5.8,1004.0,SSW,205,2.3,6.4,74,0.0,,,0.0,0,0,n/a,2026-09-05T13:59:54Z
2026-09-06 02:04:56,10.3,6,1004.0,SSE,159,0.1,1.9,74.7,0.0,,,0.0,0,0,n/a,2026-09-05T14:04:56Z
2026-09-06 02:09:55,10.3,5.9,1003.9,SSE,159,0.6,3.7,74.1,0.0,,,0.0,0,0,n/a,2026-09-05T14:09:55Z
2026-09-06 02:14:55,10.3,5.9,1003.8,SW,236,3.6,11.3,74,0.0,,,0.0,0,0,n/a,2026-09-05T14:14:55Z
2026-09-06 02:19:55,10.4,5.9,1003.7,WNW,285,0.6,5.6,74,0.0,,,0.0,0,0,n/a,2026-09-05T14:19:55Z
2026-09-06 02:24:54,10.5,5.9,1003.6,WNW,288,0.6,5.6,73.2,0.0,,,0.0,0,0,n/a,2026-09-05T14:24:54Z
2026-09-06 02:29:57,10.8,6.1,1003.6,WNW,288,1.3,5.6,72.4,0.0,,,0.0,0,0,n/a,2026-09-05T14:29:57Z
2026-09-06 02:34:58,11.1,6.3,1003.6,WNW,287,0.8,3.7,72,0.0,,,0.0,0,0,n/a,2026-09-05T14:34:58Z
2026-09-06 02:39:57,11.3,6.2,1003.6,West,259,3.1,5.6,71.1,0.0,,,0.0,0,0,n/a,2026-09-05T14:39:57Z
2026-09-06 02:44:58,11.3,6,1003.6,West,259,2.6,5.6,70,0.0,,,0.0,0,0,n/a,2026-09-05T14:44:58Z
2026-09-06 02:49:56,11.3,6,1003.7,West,259,2.6,5.6,69.8,0.0,,,0.0,0,0,n/a,2026-09-05T14:49:56Z
2026-09-06 02:54:58,11.3,5.9,1003.6,West,259,1.2,5.6,69.6,0.0,,,0.0,0,0,n/a,2026-09-05T14:54:58Z
2026-09-06 02:59:56,11.2,6.2,1003.6,West,259,0.1,1.9,71,0.0,,,0.0,0,0,n/a,2026-09-05T14:59:56Z
2026-09-06 03:04:56,11.1,6.1,1003.7,West,259,0,0,71,0.0,,,0.0,0,0,n/a,2026-09-05T15:04:56Z
2026-09-06 03:09:55,11,5.9,1003.7,West,259,0,0,70.8,0.0,,,0.0,0,0,n/a,2026-09-05T15:09:55Z
2026-09-06 03:14:54,10.9,5.9,1003.6,West,259,0,0,70.9,0.0,,,0.0,0,0,n/a,2026-09-05T15:14:54Z
2026-09-06 03:19:54,10.8,5.8,1003.5,West,259,0,0,71,0.0,,,0.0,0,0,n/a,2026-09-05T15:19:54Z
2026-09-06 03:24:54,10.7,5.7,1003.4,West,259,0,0,71,0.0,,,0.0,0,0,n/a,2026-09-05T15:24:54Z
2026-09-06 03:29:54,10.6,6,1003.5,West,259,0,0,72.9,0.0,,,0.0,0,0,n/a,2026-09-05T15:29:54Z
2026-09-06 03:34:59,10.6,6.2,1003.5,West,259,0,0,74.4,0.0,,,0.0,0,0,n/a,2026-09-05T15:34:59Z
2026-09-06 03:39:55,10.5,6.2,1003.5,West,259,0,0,75,0.0,,,0.0,0,0,n/a,2026-09-05T15:39:55Z
2026-09-06 03:44:56,10.4,6.2,1003.5,West,259,0,0,75,0.0,,,0.0,0,0,n/a,2026-09-05T15:44:56Z
2026-09-06 03:49:54,10.2,6,1003.4,West,259,0,0,75,0.0,,,0.0,0,0,n/a,2026-09-05T15:49:54Z
2026-09-06 03:54:54,10.1,5.9,1003.4,West,259,0,0,75,0.0,,,0.0,0,0,n/a,2026-09-05T15:54:54Z
2026-09-06 03:59:59,10,6,1003.5,West,259,0,0,76,0.0,,,0.0,0,0,n/a,2026-09-05T15:59:59Z
2026-09-06 04:04:59,10,5.9,1003.6,West,259,0,0,76,0.0,,,0.0,0,0,n/a,2026-09-05T16:04:59Z
2026-09-06 04:09:57,9.9,6,1003.7,West,259,0,0,76.4,0.0,,,0.0,0,0,n/a,2026-09-05T16:09:57Z
2026-09-06 04:14:57,9.9,6.1,1003.9,West,259,0,0,77,0.0,,,0.0,0,0,n/a,2026-09-05T16:14:57Z
2026-09-06 04:19:59,10.1,6.4,1004.0,SE,125,7.2,18.5,78,0.0,,,0.0,0,0,n/a,2026-09-05T16:19:59Z
2026-09-06 04:24:56,11,7.7,1004.2,ESE,109,11,18.5,80,0.0,,,0.0,0,0,n/a,2026-09-05T16:24:56Z
2026-09-06 04:29:55,11.3,8,1004.3,ESE,104,11.1,18.5,80,0.0,,,0.0,0,0,n/a,2026-09-05T16:29:55Z
2026-09-06 04:34:55,11.2,8,1004.3,East,101,11.4,20.9,80.5,0.0,,,0.0,0,0,n/a,2026-09-05T16:34:55Z
2026-09-06 04:39:55,11.1,8,1004.3,ESE,105,13.1,24.1,81,0.0,,,0.0,0,0,n/a,2026-09-05T16:39:55Z
2026-09-06 04:44:54,11.1,7.9,1004.5,East,95,12.1,22.5,81,0.0,,,0.0,0,0,n/a,2026-09-05T16:44:54Z
2026-09-06 04:49:54,11,8,1004.6,ESE,104,11.6,20.9,81.6,0.0,,,0.0,0,0,n/a,2026-09-05T16:49:54Z
2026-09-06 04:54:59,10.9,8,1004.7,ESE,121,13.7,22.5,82.2,0.0,,,0.0,0,0,n/a,2026-09-05T16:54:59Z
2026-09-06 04:59:59,10.8,8,1004.7,ESE,107,12.7,19.3,83,0.0,,,0.0,0,0,n/a,2026-09-05T16:59:59Z
2026-09-06 05:04:54,10.6,8,1004.7,ESE,107,13.9,22.5,84,0.0,,,0.0,0,0,n/a,2026-09-05T17:04:54Z
2026-09-06 05:09:54,10.6,7.9,1004.7,ESE,110,14.3,24.1,84,0.0,,,0.0,0,0,n/a,2026-09-05T17:09:54Z
2026-09-06 05:14:56,10.5,8,1004.7,ESE,109,14.5,27.8,84.6,0.0,,,0.0,0,0,n/a,2026-09-05T17:14:56Z
2026-09-06 05:19:57,10.5,8.1,1004.7,ESE,114,12.7,20.4,85,0.0,,,0.0,0,0,n/a,2026-09-05T17:19:57Z
2026-09-06 05:24:58,10.5,8.1,1004.7,East,101,14.5,24.1,85,0.0,,,0.0,0,0,n/a,2026-09-05T17:24:58Z
2026-09-06 05:29:58,10.5,8.1,1004.7,ESE,108,14.5,27.8,85,0.0,,,0.0,0,0,n/a,2026-09-05T17:29:58Z
2026-09-06 05:34:59,10.4,8.1,1004.7,ESE,111,13.4,24.1,85.4,0.0,,,0.0,0,0,n/a,2026-09-05T17:34:59Z
2026-09-06 05:39:54,10.4,8.2,1004.7,East,95,13.2,20.9,86,0.0,,,0.0,0,0,n/a,2026-09-05T17:39:54Z
2026-09-06 05:44:56,10.3,8.1,1004.8,ESE,107,12.8,22.5,86,0.0,,,0.0,0,0,n/a,2026-09-05T17:44:56Z
2026-09-06 05:49:56,10.2,8,1004.8,ESE,113,14.6,31.5,86,0.0,,,0.0,0,0,n/a,2026-09-05T17:49:56Z
2026-09-06 05:54:56,10.2,8,1004.9,ESE,114,13.7,22.5,86,0.0,,,0.0,0,0,n/a,2026-09-05T17:54:56Z
2026-09-06 05:59:55,10.2,8.2,1004.9,ESE,121,14.1,20.9,86.9,0.0,,,0.0,0,0,n/a,2026-09-05T17:59:55Z
2026-09-06 06:04:56,10.2,8.2,1004.9,ESE,112,13.7,25.7,87,0.0,,,0.0,0,0,n/a,2026-09-05T18:04:56Z
2026-09-06 06:09:58,10.2,8.2,1004.8,ESE,111,9.7,25.9,87,0.0,,,0.0,0,0,n/a,2026-09-05T18:09:58Z
2026-09-06 06:14:58,10.2,8.2,1004.8,ESE,108,11.8,19.3,87,0.0,,,0.0,0,0,n/a,2026-09-05T18:14:58Z
2026-09-06 06:19:58,10.2,8.2,1004.9,ESE,110,12.1,22.5,87,0.0,,,0.0,0,0,n/a,2026-09-05T18:19:58Z
2026-09-06 06:24:59,10.2,8.1,1004.8,ESE,110,11.7,22.2,87,0.0,,,0.0,0,0,n/a,2026-09-05T18:24:59Z
2026-09-06 06:29:54,10.2,8.1,1004.8,ESE,117,12.3,20.9,87,0.0,,,0.0,0,0,n/a,2026-09-05T18:29:54Z
2026-09-06 06:34:55,10.2,8.1,1004.9,ESE,113,12.2,22.5,87,0.0,,,0.0,0,0,n/a,2026-09-05T18:34:55Z
2026-09-06 06:39:59,10.1,8,1004.9,ESE,109,11,20.9,87,0.0,,,0.0,0,0,n/a,2026-09-05T18:39:59Z
2026-09-06 06:44:59,10.1,8,1004.9,ESE,118,11.8,20.9,87,0.0,,,0.0,0,0,n/a,2026-09-05T18:44:59Z
2026-09-06 06:49:59,10,8,1004.7,ESE,119,11.5,22.5,87,0.0,,,0.0,0,0,n/a,2026-09-05T18:49:59Z
2026-09-06 06:54:59,10,8,1004.7,ESE,108,13.8,22.5,87.3,0.0,,,0.0,0,0,n/a,2026-09-05T18:54:59Z
2026-09-06 06:59:59,10,8.1,1004.6,ESE,109,12.5,22.5,88,0.0,,,0.0,0,0,n/a,2026-09-05T18:59:59Z
2026-09-06 07:04:54,9.9,8.1,1004.7,SE,125,12.5,25.9,88,0.0,,,0.0,0,0,n/a,2026-09-05T19:04:54Z
2026-09-06 07:09:55,9.9,8,1004.8,ESE,117,13,25.9,88,0.0,,,0.0,0,0,n/a,2026-09-05T19:09:55Z
2026-09-06 07:14:55,9.9,8,1004.8,ESE,123,11.8,20.9,88,0.0,,,0.0,0,0,n/a,2026-09-05T19:14:55Z
2026-09-06 07:19:56,9.9,8,1004.8,ESE,121,10,18.5,88,0.0,,,0.0,7,0,n/a,2026-09-05T19:19:56Z
2026-09-06 07:24:55,9.8,7.9,1004.7,SE,124,12,24.1,88,0.0,,,0.0,9,0,n/a,2026-09-05T19:24:55Z
2026-09-06 07:29:56,9.8,7.9,1004.8,ESE,120,11.4,20.9,88,0.0,,,0.0,11,0,n/a,2026-09-05T19:29:56Z
2026-09-06 07:34:50,9.8,7.9,1004.8,ESE,114,10.4,20.4,88,0.0,,,0.0,16,0,n/a,2026-09-05T19:34:50Z